Weather History for Worland, WY

Change the Weather History Date:

Wednesday, September 18, 2013

  Actual Average Record
Temperature  
Mean Temperature 61 °F 57 °F  
Max Temperature 73 °F 73 °F 93 °F (1998)
Min Temperature 48 °F 42 °F 21 °F (1965)
Degree Days  
Heating Degree Days 4 8  
Month to date heating degree days 21 90  
Since 1 July heating degree days 21 126  
Cooling Degree Days 0 1  
Month to date cooling degree days 90 28  
Year to date cooling degree days 851 534  
Growing Degree Days 13 (Base 50)    
Moisture  
Dew Point 47 °F    
Average Humidity 64    
Maximum Humidity 93    
Minimum Humidity 35    
Precipitation  
Precipitation 0.10 in 0.04 in 2.06 in (1967)
Month to date precipitation 0.91 0.46  
Year to date precipitation 4.12 5.91  
Sea Level Pressure  
Sea Level Pressure 29.76 in    
Wind  
Wind Speed 9 mph (North)    
Max Wind Speed 29 mph    
Max Gust Speed 37 mph    
Visibility 9 miles    
Events Rain , Thunderstorm    
T = Trace of Precipitation, MM = Missing Value Source: NWS Daily Summary

Daily Weather History Graph

Daily Weather History Graph

Search for Another Location

Airport:

Trip Planner

Search our weather history database for the weather conditions in past years. The results will help you decide how hot, cold, wet, or windy it might be!

Date:

Astronomy

Sep. 18, 2013 Rise Set
Actual Time 6:54 AM MDT 7:16 PM MDT
Civil Twilight 6:25 AM MDT 7:44 PM MDT
Nautical Twilight 5:51 AM MDT 8:18 PM MDT
Astronomical Twilight 5:16 AM MDT 8:53 PM MDT
Moon 6:40 PM MDT (9/18) 6:00 AM MDT (9/18)
Length of Visible Light 13h 18m
Length of Day
12h 21m
Waxing Gibbous, 99% of the Moon is Illuminated
Sep 18
Waxing Gibbous
Sep 19
Full
Sep 26
Last Quarter
Oct 4
New
Oct 11
First Quarter

Hourly Weather History & Observations

Time (MDT) Temp. Dew Point Humidity Pressure Visibility Wind Dir Wind Speed Gust Speed Precip Events Conditions
12:53 AM 55.0 °F 53.1 °F 93% 29.68 in 7.0 mi East 15.0 mph 21.9 mph 0.09 in Rain Rain
1:53 AM 55.9 °F 53.1 °F 90% 29.64 in 10.0 mi Calm Calm - 0.00 in   Overcast
2:53 AM 55.9 °F 53.1 °F 90% 29.67 in 10.0 mi South 13.8 mph - 0.01 in Rain Light Rain
3:53 AM 55.9 °F 52.0 °F 87% 29.61 in 10.0 mi SE 18.4 mph - 0.00 in   Scattered Clouds
4:53 AM 57.9 °F 51.1 °F 78% 29.61 in 10.0 mi SSE 15.0 mph - N/A   Partly Cloudy
5:53 AM 57.9 °F 50.0 °F 75% 29.64 in 10.0 mi South 8.1 mph - N/A   Clear
6:53 AM 55.9 °F 50.0 °F 80% 29.67 in 10.0 mi SSW 9.2 mph - N/A   Clear
7:53 AM 57.0 °F 51.1 °F 81% 29.72 in 10.0 mi NW 9.2 mph - N/A   Clear
8:53 AM 59.0 °F 52.0 °F 78% 29.73 in 10.0 mi North 10.4 mph 17.3 mph N/A   Partly Cloudy
9:53 AM 61.0 °F 50.0 °F 67% 29.73 in 10.0 mi NE 10.4 mph - N/A   Scattered Clouds
10:53 AM 60.1 °F 46.9 °F 62% 29.71 in 10.0 mi NNE 10.4 mph - N/A   Overcast
11:04 AM 59.0 °F 44.6 °F 59% 29.80 in 10.0 mi North 9.2 mph - N/A Thunderstorm Overcast
11:19 AM 55.4 °F 48.2 °F 77% 29.86 in 1.8 mi West 5.8 mph - 0.06 in Rain , Thunderstorm Heavy Thunderstorms and Rain
11:31 AM 55.4 °F 50.0 °F 82% 29.83 in 3.0 mi ENE 6.9 mph - 0.09 in Rain , Thunderstorm Light Thunderstorms and Rain
11:53 AM 57.9 °F 48.0 °F 70% 29.76 in 10.0 mi ENE 5.8 mph - 0.09 in   Partly Cloudy
12:53 PM 61.0 °F 46.9 °F 60% 29.74 in 10.0 mi East 8.1 mph - N/A   Clear
1:53 PM 64.0 °F 46.9 °F 54% 29.72 in 10.0 mi SE 6.9 mph - N/A   Clear
2:53 PM 68.0 °F 45.0 °F 43% 29.70 in 10.0 mi Calm Calm - N/A   Clear
3:53 PM 72.0 °F 43.0 °F 35% 29.68 in 10.0 mi SW 15.0 mph - N/A   Clear
4:53 PM 71.1 °F 48.0 °F 44% 29.70 in 10.0 mi NNW 12.7 mph - N/A   Clear
5:00 PM 69.8 °F 46.4 °F 43% 29.80 in 10.0 mi NNW 9.2 mph - N/A   Clear
5:53 PM 64.0 °F 39.9 °F 41% 29.76 in 10.0 mi NNW 20.7 mph 28.8 mph N/A   Mostly Cloudy
6:53 PM 60.1 °F 39.0 °F 46% 29.81 in 10.0 mi NNE 9.2 mph 18.4 mph N/A   Clear
7:53 PM 57.9 °F 41.0 °F 53% 29.86 in 10.0 mi North 6.9 mph - N/A   Partly Cloudy
8:53 PM 55.0 °F 42.1 °F 62% 29.90 in 10.0 mi NNW 3.5 mph - N/A   Clear
9:53 PM 54.0 °F 41.0 °F 62% 29.92 in 10.0 mi Calm Calm - N/A   Partly Cloudy
10:53 PM 54.0 °F 39.9 °F 59% 29.94 in 10.0 mi NNW 4.6 mph - N/A   Mostly Cloudy
11:53 PM 51.1 °F 41.0 °F 68% 29.97 in 10.0 mi WNW 3.5 mph - N/A   Mostly Cloudy